Time,TemperatureF,DewpointF,PressureIn,WindDirection,WindDirectionDegrees,WindSpeedMPH,WindSpeedGustMPH,Humidity,HourlyPrecipIn,Conditions,Clouds,dailyrainin,SoftwareType,DateUTC
2013-01-03 00:00:00,15.4,11.7,30.08,NNW,327,0.0,0.0,85,0.00,,,0.00,Wunderground v.1.15,2013-01-03 06:00:00,
2013-01-03 00:30:00,15.0,11.3,30.08,NNW,327,0.0,0.0,85,0.00,,,0.00,Wunderground v.1.15,2013-01-03 06:30:00,
2013-01-03 01:00:00,14.5,10.5,30.08,NNW,327,0.0,0.0,84,0.00,,,0.00,Wunderground v.1.15,2013-01-03 07:00:00,
2013-01-03 01:30:00,14.0,10.1,30.09,NNW,327,0.0,0.0,84,0.00,,,0.00,Wunderground v.1.15,2013-01-03 07:30:00,
2013-01-03 02:00:00,13.6,9.7,30.09,WSW,254,0.0,0.0,84,0.00,,,0.00,Wunderground v.1.15,2013-01-03 08:00:00,
2013-01-03 02:30:00,13.2,9.3,30.11,NW,304,0.0,0.0,84,0.00,,,0.00,Wunderground v.1.15,2013-01-03 08:30:00,
2013-01-03 03:00:00,12.9,9.0,30.12,NW,304,0.0,0.0,84,0.00,,,0.00,Wunderground v.1.15,2013-01-03 09:00:00,
2013-01-03 03:30:00,12.6,8.7,30.12,NW,308,0.0,0.0,84,0.00,,,0.00,Wunderground v.1.15,2013-01-03 09:30:00,
2013-01-03 04:00:00,11.9,8.0,30.13,NW,324,0.0,0.0,84,0.00,,,0.00,Wunderground v.1.15,2013-01-03 10:00:00,
2013-01-03 04:30:00,11.2,7.0,30.15,NW,324,0.0,0.0,83,0.00,,,0.00,Wunderground v.1.15,2013-01-03 10:30:00,
2013-01-03 05:00:00,10.8,6.9,30.15,NW,324,0.0,0.0,84,0.00,,,0.00,Wunderground v.1.15,2013-01-03 11:00:00,
2013-01-03 05:30:00,10.7,7.1,30.17,NNW,329,0.0,0.0,85,0.00,,,0.00,Wunderground v.1.15,2013-01-03 11:30:00,
2013-01-03 06:00:00,10.5,6.9,30.17,NNW,329,0.0,0.0,85,0.00,,,0.00,Wunderground v.1.15,2013-01-03 12:00:00,
2013-01-03 06:30:00,9.9,6.0,30.17,NNW,329,0.0,1.0,84,0.00,,,0.00,Wunderground v.1.15,2013-01-03 12:30:00,
2013-01-03 07:00:00,9.1,5.0,30.18,NNW,329,0.0,0.0,83,0.00,,,0.00,Wunderground v.1.15,2013-01-03 13:00:00,
2013-01-03 07:30:00,8.1,4.0,30.18,NNW,329,0.0,0.0,83,0.00,,,0.00,Wunderground v.1.15,2013-01-03 13:30:00,
2013-01-03 08:00:00,7.1,3.0,30.20,NNW,328,0.0,0.0,83,0.00,,,0.00,Wunderground v.1.15,2013-01-03 14:00:00,
2013-01-03 08:30:00,6.4,2.6,30.20,NNW,328,0.0,0.0,84,0.00,,,0.01,Wunderground v.1.15,2013-01-03 14:30:00,
2013-01-03 09:00:00,5.9,1.8,30.21,NNW,328,0.0,0.0,83,0.00,,,0.01,Wunderground v.1.15,2013-01-03 15:00:00,
2013-01-03 09:30:00,6.1,1.8,30.21,NNW,328,0.0,0.0,82,0.00,,,0.01,Wunderground v.1.15,2013-01-03 15:30:00,
2013-01-03 10:00:00,6.5,1.9,30.21,NNW,329,0.0,0.0,81,0.00,,,0.01,Wunderground v.1.15,2013-01-03 16:00:00,
2013-01-03 10:30:00,7.1,2.2,30.21,NNW,328,0.0,0.0,80,0.00,,,0.01,Wunderground v.1.15,2013-01-03 16:30:00,
2013-01-03 11:00:00,8.0,2.6,30.21,NW,321,0.0,0.0,78,0.00,,,0.01,Wunderground v.1.15,2013-01-03 17:00:00,
2013-01-03 11:30:00,11.6,4.6,30.20,WNW,286,0.0,0.0,73,0.00,,,0.01,Wunderground v.1.15,2013-01-03 17:30:00,
2013-01-03 12:00:00,12.1,4.5,30.17,SSW,197,0.0,0.0,71,0.00,,,0.01,Wunderground v.1.15,2013-01-03 18:00:00,
2013-01-03 12:30:00,14.8,6.5,30.17,SSW,199,0.0,0.0,69,0.00,,,0.01,Wunderground v.1.15,2013-01-03 18:30:00,
2013-01-03 13:00:00,15.0,6.7,30.16,West,273,0.0,0.0,69,0.00,,,0.01,Wunderground v.1.15,2013-01-03 19:00:00,
2013-01-03 14:00:00,15.7,7.6,30.13,WNW,302,0.0,0.0,70,0.00,,,0.01,Wunderground v.1.15,2013-01-03 20:00:00,
2013-01-03 14:30:00,15.1,8.3,30.12,SSW,208,0.0,0.0,74,0.00,,,0.01,Wunderground v.1.15,2013-01-03 20:30:00,
2013-01-03 15:00:00,15.4,9.2,30.13,WSW,237,0.0,2.0,76,0.00,,,0.01,Wunderground v.1.15,2013-01-03 21:00:00,
2013-01-03 15:30:00,15.7,10.1,30.12,WSW,242,0.0,0.0,78,0.00,,,0.01,Wunderground v.1.15,2013-01-03 21:30:00,
2013-01-03 16:00:00,15.8,10.2,30.13,WNW,283,0.0,0.0,78,0.00,,,0.01,Wunderground v.1.15,2013-01-03 22:00:00,
2013-01-03 16:30:00,15.1,10.3,30.13,SW,235,0.0,0.0,81,0.00,,,0.01,Wunderground v.1.15,2013-01-03 22:30:00,
2013-01-03 17:00:00,15.3,10.8,30.11,SW,215,0.0,0.0,82,0.00,,,0.01,Wunderground v.1.15,2013-01-03 23:00:00,
2013-01-03 17:30:00,15.3,11.1,30.10,SW,215,0.0,0.0,83,0.00,,,0.01,Wunderground v.1.15,2013-01-03 23:30:00,
2013-01-03 18:00:00,15.5,11.5,30.07,SSW,201,0.0,2.0,84,0.00,,,0.01,Wunderground v.1.15,2013-01-04 00:00:00,
2013-01-03 18:30:00,15.7,12.0,30.06,South,188,0.0,0.0,85,0.00,,,0.01,Wunderground v.1.15,2013-01-04 00:30:00,
2013-01-03 19:00:00,15.5,11.8,30.05,SW,221,0.0,0.0,85,0.00,,,0.01,Wunderground v.1.15,2013-01-04 01:00:00,
2013-01-03 19:30:00,14.8,10.8,30.04,SW,229,0.0,0.0,84,0.00,,,0.01,Wunderground v.1.15,2013-01-04 01:30:00,
2013-01-03 20:00:00,13.9,10.0,30.04,SW,218,0.0,0.0,84,0.00,,,0.01,Wunderground v.1.15,2013-01-04 02:00:00,
2013-01-03 20:30:00,13.1,9.4,30.02,SW,218,0.0,0.0,85,0.00,,,0.01,Wunderground v.1.15,2013-01-04 02:30:00,
2013-01-03 21:00:00,13.0,9.6,30.00,SW,218,0.0,0.0,86,0.00,,,0.01,Wunderground v.1.15,2013-01-04 03:00:00,
2013-01-03 21:30:00,13.4,10.0,29.99,SW,218,0.0,0.0,86,0.00,,,0.01,Wunderground v.1.15,2013-01-04 03:30:00,
2013-01-03 22:00:00,13.7,10.3,29.96,SW,218,0.0,1.0,86,0.00,,,0.01,Wunderground v.1.15,2013-01-04 04:00:00,
2013-01-03 22:30:00,14.5,11.1,29.96,SW,220,0.0,0.0,86,0.00,,,0.01,Wunderground v.1.15,2013-01-04 04:30:00,
2013-01-03 23:00:00,14.8,11.1,29.95,SSW,212,0.0,0.0,85,0.00,,,0.01,Wunderground v.1.15,2013-01-04 05:00:00,
2013-01-03 23:30:00,15.2,11.5,29.94,South,180,0.0,0.0,85,0.00,,,0.01,Wunderground v.1.15,2013-01-04 05:30:00,